| time (UTC) | temp F | wind direction | speed MPH | gust MPH | rain 1hr in | rain 24hr in | rain mn in | humidity % | barometer mb |
| 20260905111139 | 47 | 296 | 1.0 | 2.0 | 0.00 | 0.00 | 0.00 | 92 | 1016.9 |
| 20260905110641 | 47 | 288 | 1.0 | 2.0 | 0.00 | 0.00 | 0.00 | 92 | 1016.9 |
| 20260905110150 | 47 | 101 | 1.0 | 1.0 | 0.00 | 0.00 | 0.00 | 92 | 1016.6 |
| 20260905105615 | 47 | 357 | 2.0 | 3.0 | 0.00 | 0.00 | 0.00 | 92 | 1016.6 |
| 20260905105035 | 47 | 35 | 0.0 | 2.0 | 0.00 | 0.00 | 0.00 | 92 | 1016.6 |
| 20260905104514 | 47 | 219 | 2.0 | 3.0 | 0.00 | 0.00 | 0.00 | 92 | 1016.6 |
| 20260905103939 | 47 | 260 | 2.0 | 2.0 | 0.00 | 0.00 | 0.00 | 92 | 1016.3 |
| 20260905103420 | 47 | 258 | 0.0 | 1.0 | 0.00 | 0.00 | 0.00 | 92 | 1016.6 |
| 20260905102842 | 47 | 196 | 1.0 | 2.0 | 0.00 | 0.00 | 0.00 | 92 | 1016.6 |
| 20260905102306 | 47 | 299 | 1.0 | 2.0 | 0.00 | 0.00 | 0.00 | 92 | 1016.3 |
| 20260905101713 | 47 | 221 | 2.0 | 2.0 | 0.00 | 0.00 | 0.00 | 92 | 1016.6 |
| 20260905101131 | 47 | 113 | 1.0 | 1.0 | 0.00 | 0.00 | 0.00 | 93 | 1016.6 |
| 20260905100558 | 47 | 206 | 0.0 | 1.0 | 0.00 | 0.00 | 0.00 | 92 | 1016.3 |
| 20260905100022 | 48 | 99 | 1.0 | 2.0 | 0.00 | 0.00 | 0.00 | 92 | 1016.3 |
| 20260905095424 | 48 | 224 | 2.0 | 2.0 | 0.00 | 0.00 | 0.00 | 92 | 1016.3 |
| 20260905094853 | 48 | 313 | 0.0 | 1.0 | 0.00 | 0.00 | 0.00 | 92 | 1016.3 |
| 20260905094333 | 48 | 261 | 1.0 | 2.0 | 0.00 | 0.00 | 0.00 | 91 | 1016.3 |
| 20260905093818 | 48 | 221 | 3.0 | 5.0 | 0.00 | 0.00 | 0.00 | 91 | 1016.3 |
| 20260905093304 | 48 | 12 | 4.0 | 6.0 | 0.00 | 0.00 | 0.00 | 91 | 1016.6 |
| 20260905092747 | 48 | 346 | 4.0 | 7.0 | 0.00 | 0.00 | 0.00 | 91 | 1016.6 |
| 20260905092226 | 48 | 235 | 1.0 | 3.0 | 0.00 | 0.00 | 0.00 | 91 | 1016.6 |
| 20260905091717 | 48 | 259 | 2.0 | 5.0 | 0.00 | 0.00 | 0.00 | 91 | 1016.6 |
| 20260905091212 | 48 | 334 | 2.0 | 2.0 | 0.00 | 0.00 | 0.00 | 91 | 1016.6 |
| 20260905090702 | 48 | 258 | 1.0 | 2.0 | 0.00 | 0.00 | 0.00 | 91 | 1016.6 |
| 20260905090146 | 48 | 178 | 0.0 | 1.0 | 0.00 | 0.00 | 0.00 | 91 | 1016.3 |
| 20260905085642 | 48 | 243 | 1.0 | 2.0 | 0.00 | 0.00 | 0.00 | 91 | 1016.3 |
| 20260905085139 | 48 | 270 | 1.0 | 3.0 | 0.00 | 0.00 | 0.00 | 91 | 1016.3 |
| 20260905084637 | 48 | 131 | 1.0 | 1.0 | 0.00 | 0.00 | 0.00 | 91 | 1015.9 |
| 20260905084138 | 48 | 250 | 2.0 | 3.0 | 0.00 | 0.00 | 0.00 | 91 | 1015.9 |
| 20260905083639 | 48 | 251 | 3.0 | 3.0 | 0.00 | 0.00 | 0.00 | 91 | 1016.3 |
| 20260905083139 | 48 | 67 | 2.0 | 3.0 | 0.00 | 0.00 | 0.00 | 92 | 1016.3 |
| 20260905082638 | 48 | 311 | 4.0 | 8.0 | 0.00 | 0.00 | 0.00 | 92 | 1016.3 |
| 20260905082141 | 48 | 228 | 0.0 | 1.0 | 0.00 | 0.00 | 0.00 | 91 | 1016.3 |
| 20260905081637 | 48 | 99 | 2.0 | 3.0 | 0.00 | 0.00 | 0.00 | 91 | 1016.3 |
| 20260905081137 | 48 | 328 | 2.0 | 3.0 | 0.00 | 0.00 | 0.00 | 91 | 1016.3 |
| 20260905080632 | 48 | 158 | 1.0 | 1.0 | 0.00 | 0.00 | 0.00 | 91 | 1016.3 |
| 20260905080123 | 48 | 253 | 0.0 | 1.0 | 0.00 | 0.00 | 0.00 | 92 | 1016.3 |
| 20260905075619 | 49 | 98 | 1.0 | 2.0 | 0.00 | 0.00 | 0.00 | 92 | 1016.3 |
| 20260905075127 | 49 | 294 | 1.0 | 3.0 | 0.00 | 0.00 | 0.00 | 92 | 1015.9 |
| 20260905074637 | 49 | 218 | 0.0 | 1.0 | 0.00 | 0.00 | 0.00 | 92 | 1015.9 |
| 20260905074151 | 49 | 34 | 2.0 | 3.0 | 0.00 | 0.00 | 0.00 | 91 | 1015.6 |
| 20260905073551 | 49 | 70 | 4.0 | 8.0 | 0.00 | 0.00 | 0.00 | 92 | 1015.9 |
| 20260905072957 | 49 | 18 | 3.0 | 3.0 | 0.00 | 0.00 | 0.00 | 92 | 1015.9 |
| 20260905072436 | 49 | 4 | 4.0 | 5.0 | 0.00 | 0.00 | 0.00 | 92 | 1015.9 |
| 20260905071941 | 50 | 345 | 1.0 | 2.0 | 0.00 | 0.00 | 0.00 | 93 | 1015.9 |
| 20260905071448 | 50 | 311 | 3.0 | 5.0 | 0.00 | 0.00 | 0.00 | 93 | 1015.6 |
| 20260905070941 | 50 | 173 | 1.0 | 2.0 | 0.00 | 0.00 | 0.00 | 94 | 1015.9 |
| 20260905070415 | 50 | 218 | 3.0 | 5.0 | 0.00 | 0.00 | 0.00 | 94 | 1015.9 |
| 20260905065843 | 50 | 176 | 3.0 | 3.0 | 0.00 | 0.00 | 0.00 | 94 | 1016.3 |
| 20260905065325 | 50 | 172 | 3.0 | 3.0 | 0.00 | 0.00 | 0.00 | 94 | 1015.9 |
| 20260905064851 | 50 | 203 | 1.0 | 1.0 | 0.00 | 0.00 | 0.00 | 93 | 1015.9 |
| 20260905064311 | 50 | 222 | 1.0 | 1.0 | 0.00 | 0.00 | 0.00 | 93 | 1015.9 |
| 20260905063727 | 50 | 301 | 3.0 | 3.0 | 0.00 | 0.00 | 0.00 | 92 | 1015.6 |
| 20260905063144 | 50 | 89 | 3.0 | 5.0 | 0.00 | 0.00 | 0.00 | 92 | 1015.6 |
| 20260905062642 | 50 | 355 | 3.0 | 5.0 | 0.00 | 0.00 | 0.00 | 92 | 1015.6 |
| 20260905062130 | 50 | 60 | 1.0 | 2.0 | 0.00 | 0.00 | 0.00 | 92 | 1015.2 |
| 20260905061552 | 50 | 139 | 2.0 | 2.0 | 0.00 | 0.00 | 0.00 | 92 | 1015.9 |
| 20260905061041 | 50 | 41 | 1.0 | 1.0 | 0.00 | 0.00 | 0.00 | 92 | 1015.9 |
| 20260905060443 | 50 | 229 | 0.0 | 1.0 | 0.00 | 0.00 | 0.00 | 92 | 1015.6 |
| 20260905055938 | 50 | 192 | 0.0 | 1.0 | 0.00 | 0.00 | 0.01 | 93 | 1014.9 |
| 20260905055446 | 51 | 45 | 2.0 | 3.0 | 0.00 | 0.00 | 0.01 | 92 | 1014.9 |
| 20260905054942 | 51 | 105 | 2.0 | 3.0 | 0.00 | 0.00 | 0.01 | 93 | 1014.9 |
| 20260905054454 | 51 | 92 | 1.0 | 2.0 | 0.00 | 0.00 | 0.01 | 92 | 1014.9 |
| 20260905053942 | 51 | 323 | 3.0 | 5.0 | 0.00 | 0.00 | 0.01 | 92 | 1014.6 |
| 20260905053441 | 51 | 247 | 3.0 | 3.0 | 0.00 | 0.00 | 0.01 | 92 | 1014.6 |
| 20260905052943 | 51 | 190 | 0.0 | 1.0 | 0.00 | 0.00 | 0.01 | 93 | 1014.9 |
| 20260905052423 | 51 | 162 | 0.0 | 1.0 | 0.00 | 0.00 | 0.01 | 93 | 1014.9 |
| 20260905051900 | 51 | 239 | 1.0 | 2.0 | 0.00 | 0.00 | 0.01 | 93 | 1014.6 |
| 20260905051339 | 51 | 7 | 1.0 | 2.0 | 0.00 | 0.00 | 0.01 | 93 | 1014.9 |
| 20260905050815 | 51 | 61 | 0.0 | 0.0 | 0.00 | 0.00 | 0.01 | 93 | 1014.9 |
| 20260905050255 | 51 | 119 | 0.0 | 1.0 | 0.00 | 0.00 | 0.01 | 93 | 1014.9 |
| 20260905045735 | 51 | 202 | 1.0 | 2.0 | 0.00 | 0.00 | 0.01 | 93 | 1014.9 |
| 20260905045217 | 51 | 220 | 1.0 | 1.0 | 0.00 | 0.00 | 0.01 | 93 | 1014.6 |
| 20260905044710 | 51 | 358 | 1.0 | 3.0 | 0.00 | 0.00 | 0.01 | 93 | 1014.6 |
| 20260905044154 | 51 | 15 | 2.0 | 3.0 | 0.00 | 0.00 | 0.01 | 93 | 1014.6 |
| 20260905043644 | 52 | 237 | 1.0 | 2.0 | 0.00 | 0.00 | 0.01 | 93 | 1014.6 |
| 20260905043135 | 52 | 245 | 0.0 | 1.0 | 0.00 | 0.00 | 0.01 | 93 | 1014.6 |
| 20260905042541 | 52 | 272 | 2.0 | 3.0 | 0.00 | 0.00 | 0.01 | 92 | 1014.6 |
| 20260905042038 | 52 | 287 | 1.0 | 2.0 | 0.00 | 0.00 | 0.01 | 91 | 1014.6 |
| 20260905041538 | 53 | 209 | 0.0 | 1.0 | 0.00 | 0.00 | 0.01 | 91 | 1014.6 |
| 20260905041041 | 53 | 294 | 0.0 | 1.0 | 0.00 | 0.00 | 0.01 | 90 | 1014.6 |
| 20260905040541 | 53 | 255 | 2.0 | 2.0 | 0.00 | 0.00 | 0.01 | 90 | 1014.6 |
| 20260905040043 | 53 | 299 | 1.0 | 2.0 | 0.00 | 0.00 | 0.01 | 90 | 1014.6 |
| 20260905035536 | 53 | 93 | 0.0 | 0.0 | 0.00 | 0.00 | 0.01 | 89 | 1014.2 |
| 20260905035040 | 53 | 53 | 1.0 | 2.0 | 0.00 | 0.00 | 0.01 | 89 | 1014.2 |
| 20260905034540 | 53 | 10 | 1.0 | 1.0 | 0.00 | 0.00 | 0.01 | 89 | 1014.2 |
| 20260905034010 | 54 | 304 | 1.0 | 1.0 | 0.00 | 0.00 | 0.01 | 88 | 1014.6 |
| 20260905033513 | 54 | 158 | 0.0 | 0.0 | 0.00 | 0.00 | 0.01 | 88 | 1014.2 |
| 20260905033007 | 54 | 347 | 0.0 | 2.0 | 0.00 | 0.00 | 0.01 | 88 | 1014.6 |
| 20260905032501 | 54 | 155 | 1.0 | 1.0 | 0.00 | 0.00 | 0.01 | 87 | 1014.6 |
| 20260905032001 | 54 | 55 | 3.0 | 5.0 | 0.00 | 0.00 | 0.01 | 87 | 1014.2 |
| 20260905031458 | 54 | 290 | 2.0 | 2.0 | 0.00 | 0.00 | 0.01 | 87 | 1014.6 |
| 20260905031000 | 54 | 54 | 2.0 | 2.0 | 0.00 | 0.00 | 0.01 | 86 | 1014.6 |
| 20260905030459 | 54 | 350 | 1.0 | 2.0 | 0.00 | 0.00 | 0.01 | 86 | 1014.2 |
| 20260905025957 | 54 | 248 | 1.0 | 2.0 | 0.00 | 0.00 | 0.01 | 86 | 1014.6 |
| 20260905025457 | 55 | 215 | 1.0 | 2.0 | 0.00 | 0.00 | 0.01 | 86 | 1014.2 |
| 20260905024957 | 55 | 201 | 1.0 | 2.0 | 0.00 | 0.00 | 0.01 | 86 | 1014.2 |
| 20260905024456 | 55 | 38 | 1.0 | 1.0 | 0.00 | 0.00 | 0.01 | 85 | 1013.9 |
| 20260905023954 | 55 | 60 | 0.0 | 0.0 | 0.00 | 0.00 | 0.01 | 84 | 1013.9 |
| 20260905023353 | 55 | 167 | 0.0 | 0.0 | 0.00 | 0.00 | 0.01 | 84 | 1013.5 |
| 20260905022854 | 55 | 205 | 0.0 | 1.0 | 0.00 | 0.00 | 0.01 | 84 | 1013.5 |
| 20260905022351 | 56 | 16 | 1.0 | 3.0 | 0.00 | 0.00 | 0.01 | 84 | 1013.5 |
| 20260905021852 | 56 | 214 | 0.0 | 0.0 | 0.00 | 0.00 | 0.01 | 84 | 1013.9 |
| 20260905021355 | 56 | 217 | 0.0 | 0.0 | 0.00 | 0.00 | 0.01 | 83 | 1013.5 |
| 20260905020852 | 57 | 224 | 0.0 | 1.0 | 0.00 | 0.00 | 0.01 | 83 | 1013.5 |
| 20260905020350 | 57 | 197 | 0.0 | 0.0 | 0.00 | 0.00 | 0.01 | 82 | 1013.5 |
| 20260905015848 | 57 | 241 | 0.0 | 1.0 | 0.00 | 0.00 | 0.01 | 82 | 1013.5 |
| 20260905015349 | 58 | 225 | 1.0 | 2.0 | 0.00 | 0.00 | 0.01 | 81 | 1013.5 |
| 20260905014848 | 58 | 188 | 0.0 | 1.0 | 0.00 | 0.00 | 0.01 | 79 | 1013.5 |
| 20260905014345 | 58 | 185 | 0.0 | 1.0 | 0.00 | 0.00 | 0.01 | 79 | 1013.5 |
| 20260905013845 | 58 | 313 | 3.0 | 3.0 | 0.00 | 0.00 | 0.01 | 78 | 1013.9 |
| 20260905013344 | 58 | 281 | 0.0 | 1.0 | 0.00 | 0.00 | 0.01 | 78 | 1013.5 |
| 20260905012843 | 59 | 260 | 1.0 | 1.0 | 0.00 | 0.00 | 0.01 | 77 | 1013.5 |
| 20260905012343 | 59 | 271 | 1.0 | 2.0 | 0.00 | 0.00 | 0.01 | 77 | 1013.5 |
| 20260905011843 | 59 | 255 | 1.0 | 1.0 | 0.00 | 0.00 | 0.01 | 77 | 1013.5 |
| 20260905011343 | 59 | 223 | 1.0 | 1.0 | 0.00 | 0.00 | 0.01 | 78 | 1013.2 |
| 20260905010841 | 59 | 263 | 1.0 | 2.0 | 0.00 | 0.00 | 0.01 | 76 | 1013.5 |
| 20260905010340 | 59 | 257 | 1.0 | 1.0 | 0.00 | 0.00 | 0.01 | 75 | 1013.2 |
| 20260905005841 | 59 | 297 | 2.0 | 2.0 | 0.00 | 0.00 | 0.01 | 74 | 1013.2 |
| 20260905005339 | 59 | 185 | 0.0 | 1.0 | 0.00 | 0.00 | 0.01 | 74 | 1013.2 |
| 20260905004839 | 59 | 282 | 3.0 | 3.0 | 0.00 | 0.00 | 0.01 | 75 | 1013.2 |
| 20260905004337 | 58 | 295 | 3.0 | 5.0 | 0.00 | 0.00 | 0.01 | 75 | 1012.9 |
| 20260905003837 | 58 | 323 | 2.0 | 2.0 | 0.00 | 0.00 | 0.01 | 76 | 1012.9 |
| 20260905003338 | 58 | 229 | 2.0 | 3.0 | 0.00 | 0.00 | 0.01 | 77 | 1012.9 |
| 20260905002834 | 58 | 269 | 2.0 | 2.0 | 0.00 | 0.00 | 0.01 | 76 | 1012.9 |
| 20260905002334 | 58 | 103 | 2.0 | 2.0 | 0.00 | 0.00 | 0.01 | 76 | 1012.9 |
| 20260905001834 | 58 | 216 | 1.0 | 1.0 | 0.00 | 0.00 | 0.01 | 76 | 1012.9 |
| 20260905001333 | 58 | 282 | 1.0 | 5.0 | 0.00 | 0.00 | 0.01 | 77 | 1012.9 |
| 20260905000832 | 58 | 285 | 3.0 | 3.0 | 0.00 | 0.00 | 0.01 | 77 | 1012.9 |
| 20260905000329 | 57 | 250 | 1.0 | 2.0 | 0.00 | 0.00 | 0.01 | 77 | 1012.9 |
| 20260904235829 | 57 | 265 | 1.0 | 2.0 | 0.00 | 0.00 | 0.01 | 78 | 1012.9 |
| 20260904235329 | 57 | 285 | 3.0 | 3.0 | 0.00 | 0.00 | 0.01 | 78 | 1012.9 |
| 20260904234829 | 57 | 251 | 1.0 | 2.0 | 0.00 | 0.00 | 0.01 | 79 | 1012.9 |
| 20260904234328 | 57 | 254 | 1.0 | 2.0 | 0.00 | 0.00 | 0.01 | 79 | 1012.9 |
| 20260904233827 | 57 | 240 | 1.0 | 2.0 | 0.00 | 0.00 | 0.01 | 79 | 1012.5 |
| 20260904233327 | 57 | 227 | 1.0 | 2.0 | 0.00 | 0.00 | 0.01 | 79 | 1012.5 |
| 20260904232826 | 57 | 295 | 1.0 | 1.0 | 0.00 | 0.00 | 0.01 | 79 | 1012.5 |
| 20260904232325 | 57 | 224 | 1.0 | 1.0 | 0.00 | 0.00 | 0.01 | 80 | 1012.5 |
| 20260904231825 | 57 | 238 | 0.0 | 0.0 | 0.00 | 0.00 | 0.01 | 80 | 1012.5 |
| 20260904231324 | 57 | 293 | 2.0 | 2.0 | 0.00 | 0.00 | 0.01 | 79 | 1012.5 |
| 20260904230823 | 57 | 290 | 2.0 | 5.0 | 0.00 | 0.00 | 0.01 | 79 | 1012.5 |
| 20260904230324 | 57 | 254 | 0.0 | 1.0 | 0.00 | 0.00 | 0.01 | 80 | 1012.2 |
| 20260904225822 | 57 | 237 | 1.0 | 2.0 | 0.00 | 0.00 | 0.01 | 81 | 1012.2 |
| 20260904225322 | 57 | 298 | 0.0 | 1.0 | 0.00 | 0.00 | 0.01 | 79 | 1012.2 |
| 20260904224823 | 57 | 221 | 0.0 | 1.0 | 0.00 | 0.00 | 0.01 | 78 | 1012.2 |
| 20260904224323 | 57 | 226 | 0.0 | 1.0 | 0.00 | 0.00 | 0.01 | 78 | 1012.2 |
| 20260904223822 | 57 | 283 | 3.0 | 3.0 | 0.00 | 0.00 | 0.01 | 78 | 1011.9 |
| 20260904223323 | 57 | 247 | 1.0 | 1.0 | 0.00 | 0.00 | 0.01 | 77 | 1011.9 |
| 20260904222819 | 57 | 246 | 1.0 | 2.0 | 0.00 | 0.00 | 0.01 | 77 | 1011.9 |
| 20260904222323 | 57 | 280 | 3.0 | 3.0 | 0.00 | 0.00 | 0.01 | 77 | 1011.9 |
| 20260904221821 | 57 | 267 | 2.0 | 3.0 | 0.00 | 0.00 | 0.01 | 77 | 1011.9 |
| 20260904221318 | 57 | 257 | 1.0 | 1.0 | 0.00 | 0.00 | 0.01 | 77 | 1011.5 |
| 20260904220818 | 57 | 309 | 3.0 | 5.0 | 0.00 | 0.00 | 0.01 | 76 | 1011.5 |
| 20260904220320 | 57 | 216 | 0.0 | 1.0 | 0.00 | 0.00 | 0.01 | 76 | 1011.5 |
| 20260904215818 | 57 | 221 | 1.0 | 2.0 | 0.00 | 0.00 | 0.01 | 76 | 1011.9 |
| 20260904215318 | 57 | 228 | 2.0 | 2.0 | 0.00 | 0.00 | 0.01 | 76 | 1011.5 |
| 20260904214816 | 57 | 254 | 3.0 | 5.0 | 0.00 | 0.00 | 0.01 | 76 | 1011.5 |
| 20260904214318 | 57 | 227 | 0.0 | 1.0 | 0.00 | 0.00 | 0.01 | 77 | 1011.9 |
| 20260904213816 | 57 | 232 | 0.0 | 1.0 | 0.00 | 0.00 | 0.01 | 77 | 1011.5 |
| 20260904213316 | 57 | 236 | 0.0 | 0.0 | 0.00 | 0.00 | 0.01 | 76 | 1011.9 |
| 20260904212817 | 57 | 262 | 1.0 | 2.0 | 0.00 | 0.00 | 0.01 | 76 | 1011.9 |
| 20260904212324 | 58 | 265 | 0.0 | 1.0 | 0.00 | 0.00 | 0.01 | 76 | 1011.5 |
| 20260904211815 | 58 | 267 | 2.0 | 2.0 | 0.00 | 0.00 | 0.01 | 76 | 1011.5 |
| 20260904211315 | 58 | 226 | 0.0 | 0.0 | 0.00 | 0.00 | 0.01 | 76 | 1011.5 |
| 20260904210816 | 58 | 231 | 0.0 | 1.0 | 0.00 | 0.00 | 0.01 | 75 | 1011.5 |
| 20260904210315 | 58 | 229 | 0.0 | 0.0 | 0.00 | 0.00 | 0.01 | 76 | 1011.5 |
| 20260904205815 | 58 | 23 | 0.0 | 1.0 | 0.00 | 0.00 | 0.01 | 76 | 1011.2 |
| 20260904205316 | 58 | 8 | 1.0 | 1.0 | 0.00 | 0.00 | 0.01 | 75 | 1011.2 |
| 20260904204815 | 58 | 252 | 1.0 | 2.0 | 0.00 | 0.00 | 0.01 | 75 | 1011.2 |
| 20260904204315 | 58 | 21 | 3.0 | 5.0 | 0.00 | 0.00 | 0.01 | 75 | 1010.8 |
| 20260904203813 | 58 | 191 | 2.0 | 3.0 | 0.00 | 0.00 | 0.01 | 76 | 1011.2 |
| 20260904203314 | 58 | 257 | 1.0 | 1.0 | 0.00 | 0.00 | 0.01 | 77 | 1010.8 |
| 20260904202815 | 58 | 269 | 2.0 | 2.0 | 0.00 | 0.00 | 0.01 | 76 | 1010.8 |
| 20260904202316 | 58 | 208 | 1.0 | 2.0 | 0.00 | 0.00 | 0.01 | 76 | 1010.8 |
| 20260904201814 | 58 | 235 | 3.0 | 3.0 | 0.00 | 0.00 | 0.01 | 76 | 1010.8 |
| 20260904201314 | 58 | 50 | 1.0 | 5.0 | 0.00 | 0.00 | 0.01 | 75 | 1010.8 |
| 20260904200813 | 58 | 244 | 2.0 | 3.0 | 0.00 | 0.00 | 0.01 | 75 | 1010.8 |
| 20260904200313 | 58 | 231 | 0.0 | 1.0 | 0.00 | 0.00 | 0.01 | 75 | 1010.8 |
| 20260904195814 | 58 | 257 | 0.0 | 1.0 | 0.00 | 0.00 | 0.01 | 75 | 1010.8 |
| 20260904195312 | 58 | 307 | 3.0 | 6.0 | 0.00 | 0.00 | 0.01 | 74 | 1010.8 |
| 20260904194813 | 58 | 358 | 0.0 | 1.0 | 0.00 | 0.00 | 0.01 | 75 | 1010.8 |
| 20260904194312 | 58 | 70 | 2.0 | 2.0 | 0.00 | 0.00 | 0.01 | 75 | 1010.5 |
| 20260904193813 | 58 | 96 | 3.0 | 5.0 | 0.00 | 0.00 | 0.01 | 75 | 1010.5 |
| 20260904193313 | 58 | 344 | 2.0 | 5.0 | 0.00 | 0.00 | 0.01 | 74 | 1010.5 |
| 20260904192812 | 57 | 274 | 3.0 | 7.0 | 0.00 | 0.00 | 0.01 | 75 | 1010.2 |
| 20260904192313 | 57 | 325 | 1.0 | 1.0 | 0.00 | 0.00 | 0.01 | 77 | 1010.2 |
| 20260904191813 | 57 | 263 | 0.0 | 2.0 | 0.00 | 0.00 | 0.01 | 77 | 1010.2 |
| 20260904191311 | 57 | 247 | 2.0 | 2.0 | 0.00 | 0.00 | 0.01 | 79 | 1010.2 |
| 20260904190822 | 57 | 228 | 0.0 | 1.0 | 0.00 | 0.00 | 0.01 | 79 | 1010.2 |
| 20260904190314 | 57 | 252 | 4.0 | 6.0 | 0.00 | 0.00 | 0.01 | 79 | 1010.2 |
| 20260904185812 | 57 | 292 | 3.0 | 5.0 | 0.00 | 0.00 | 0.01 | 80 | 1010.2 |
| 20260904185311 | 57 | 56 | 2.0 | 2.0 | 0.00 | 0.00 | 0.01 | 81 | 1010.2 |
| 20260904184812 | 57 | 165 | 1.0 | 2.0 | 0.00 | 0.00 | 0.01 | 81 | 1010.2 |
| 20260904184313 | 56 | 45 | 1.0 | 2.0 | 0.00 | 0.00 | 0.01 | 82 | 1010.5 |
| 20260904183815 | 56 | 38 | 3.0 | 3.0 | 0.00 | 0.00 | 0.01 | 82 | 1010.5 |
| 20260904183310 | 56 | 161 | 2.0 | 3.0 | 0.00 | 0.00 | 0.01 | 83 | 1010.5 |
| 20260904182812 | 56 | 26 | 1.0 | 2.0 | 0.00 | 0.00 | 0.01 | 84 | 1010.5 |
| 20260904182310 | 56 | 224 | 0.0 | 1.0 | 0.00 | 0.00 | 0.01 | 83 | 1010.5 |
| 20260904181814 | 55 | 197 | 2.0 | 2.0 | 0.00 | 0.00 | 0.01 | 83 | 1010.5 |
| 20260904181312 | 55 | 49 | 4.0 | 6.0 | 0.00 | 0.00 | 0.01 | 83 | 1010.5 |
| 20260904180811 | 55 | 332 | 1.0 | 3.0 | 0.00 | 0.00 | 0.01 | 84 | 1010.2 |
| 20260904180313 | 55 | 106 | 3.0 | 3.0 | 0.00 | 0.00 | 0.01 | 84 | 1010.2 |
| 20260904175813 | 55 | 252 | 1.0 | 2.0 | 0.00 | 0.00 | 0.01 | 86 | 1010.2 |
| 20260904175310 | 55 | 207 | 1.0 | 2.0 | 0.00 | 0.00 | 0.01 | 86 | 1010.2 |
| 20260904174813 | 54 | 98 | 3.0 | 5.0 | 0.00 | 0.00 | 0.01 | 85 | 1010.2 |
| 20260904174313 | 54 | 97 | 3.0 | 5.0 | 0.00 | 0.00 | 0.01 | 87 | 1010.2 |
| 20260904173813 | 54 | 55 | 2.0 | 2.0 | 0.00 | 0.00 | 0.01 | 88 | 1010.2 |
| 20260904173315 | 54 | 108 | 2.0 | 3.0 | 0.00 | 0.00 | 0.01 | 88 | 1010.2 |
| 20260904172811 | 54 | 201 | 1.0 | 1.0 | 0.00 | 0.00 | 0.01 | 89 | 1010.2 |
| 20260904172318 | 54 | 48 | 2.0 | 3.0 | 0.00 | 0.00 | 0.00 | 87 | 1010.2 |
| 20260904171819 | 53 | 278 | 2.0 | 2.0 | 0.00 | 0.00 | 0.00 | 86 | 1010.2 |
| 20260904171318 | 53 | 43 | 1.0 | 3.0 | 0.00 | 0.00 | 0.00 | 86 | 1010.2 |
| 20260904170818 | 53 | 164 | 0.0 | 1.0 | 0.00 | 0.00 | 0.00 | 86 | 1010.2 |
| 20260904170322 | 53 | 49 | 1.0 | 2.0 | 0.00 | 0.00 | 0.00 | 88 | 1010.2 |
| 20260904165817 | 53 | 132 | 2.0 | 3.0 | 0.00 | 0.00 | 0.00 | 87 | 1010.2 |
| 20260904165317 | 53 | 31 | 2.0 | 2.0 | 0.00 | 0.00 | 0.00 | 87 | 1010.2 |
| 20260904164816 | 53 | 81 | 2.0 | 2.0 | 0.00 | 0.00 | 0.00 | 87 | 1010.2 |
| 20260904164317 | 53 | 15 | 3.0 | 3.0 | 0.00 | 0.00 | 0.00 | 87 | 1010.2 |
| 20260904163816 | 53 | 55 | 2.0 | 3.0 | 0.00 | 0.00 | 0.00 | 87 | 1009.8 |
| 20260904163317 | 53 | 131 | 0.0 | 1.0 | 0.00 | 0.00 | 0.00 | 88 | 1010.2 |
| 20260904162815 | 53 | 34 | 2.0 | 3.0 | 0.00 | 0.00 | 0.00 | 88 | 1010.2 |
| 20260904162315 | 53 | 71 | 2.0 | 3.0 | 0.00 | 0.00 | 0.00 | 87 | 1010.2 |
| 20260904161816 | 53 | 180 | 1.0 | 2.0 | 0.00 | 0.00 | 0.00 | 87 | 1010.2 |
| 20260904161315 | 53 | 182 | 0.0 | 1.0 | 0.00 | 0.00 | 0.00 | 86 | 1009.8 |
| 20260904160814 | 53 | 301 | 3.0 | 6.0 | 0.00 | 0.00 | 0.00 | 83 | 1009.8 |
| 20260904160314 | 53 | 117 | 3.0 | 3.0 | 0.00 | 0.00 | 0.00 | 81 | 1009.8 |
| 20260904155813 | 53 | 38 | 1.0 | 2.0 | 0.00 | 0.00 | 0.00 | 80 | 1009.8 |
| 20260904155313 | 53 | 39 | 2.0 | 5.0 | 0.00 | 0.00 | 0.00 | 79 | 1009.8 |
| 20260904154814 | 53 | 160 | 0.0 | 1.0 | 0.00 | 0.00 | 0.00 | 76 | 1009.8 |
| 20260904154315 | 53 | 54 | 0.0 | 1.0 | 0.00 | 0.00 | 0.00 | 75 | 1009.5 |
| 20260904153741 | 53 | 187 | 0.0 | 0.0 | 0.00 | 0.00 | 0.00 | 75 | 1009.5 |
| 20260904153240 | 53 | 45 | 0.0 | 1.0 | 0.00 | 0.00 | 0.00 | 74 | 1009.1 |
| 20260904152740 | 53 | 96 | 1.0 | 1.0 | 0.00 | 0.00 | 0.00 | 74 | 1009.5 |
| 20260904152240 | 53 | 252 | 0.0 | 1.0 | 0.00 | 0.00 | 0.00 | 74 | 1009.5 |
| 20260904151737 | 53 | 70 | 0.0 | 1.0 | 0.00 | 0.00 | 0.00 | 73 | 1009.1 |
| 20260904151241 | 53 | 130 | 1.0 | 1.0 | 0.00 | 0.00 | 0.00 | 73 | 1009.1 |
| 20260904150741 | 53 | 245 | 0.0 | 1.0 | 0.00 | 0.00 | 0.00 | 73 | 1009.1 |
| 20260904150239 | 53 | 123 | 0.0 | 0.0 | 0.00 | 0.00 | 0.00 | 73 | 1009.1 |
| 20260904145738 | 53 | 175 | 0.0 | 1.0 | 0.00 | 0.00 | 0.00 | 73 | 1008.8 |
| 20260904145238 | 53 | 13 | 1.0 | 1.0 | 0.00 | 0.00 | 0.00 | 73 | 1008.8 |
| 20260904144738 | 53 | 51 | 0.0 | 1.0 | 0.00 | 0.00 | 0.00 | 73 | 1008.5 |
| 20260904144238 | 53 | 4 | 0.0 | 1.0 | 0.00 | 0.00 | 0.00 | 73 | 1008.8 |
| 20260904143737 | 53 | 119 | 0.0 | 0.0 | 0.00 | 0.00 | 0.00 | 72 | 1008.5 |
| 20260904143238 | 53 | 169 | 0.0 | 0.0 | 0.00 | 0.00 | 0.00 | 71 | 1008.5 |
| 20260904142716 | 53 | 289 | 1.0 | 1.0 | 0.00 | 0.00 | 0.00 | 70 | 1008.1 |
| 20260904142142 | 52 | 221 | 0.0 | 1.0 | 0.00 | 0.00 | 0.00 | 70 | 1008.5 |
| 20260904141641 | 52 | 294 | 2.0 | 2.0 | 0.00 | 0.00 | 0.00 | 70 | 1008.1 |
| 20260904141136 | 52 | 292 | 3.0 | 5.0 | 0.00 | 0.00 | 0.00 | 69 | 1008.1 |
| 20260904140641 | 52 | 237 | 2.0 | 2.0 | 0.00 | 0.00 | 0.00 | 70 | 1007.8 |
| 20260904140142 | 52 | 258 | 2.0 | 3.0 | 0.00 | 0.00 | 0.00 | 70 | 1007.8 |
| 20260904135640 | 51 | 282 | 2.0 | 2.0 | 0.00 | 0.00 | 0.00 | 71 | 1007.8 |
| 20260904135143 | 51 | 286 | 4.0 | 6.0 | 0.00 | 0.00 | 0.00 | 71 | 1007.8 |
| 20260904134640 | 51 | 280 | 2.0 | 3.0 | 0.00 | 0.00 | 0.00 | 72 | 1007.5 |
| 20260904134126 | 51 | 250 | 2.0 | 2.0 | 0.00 | 0.00 | 0.00 | 72 | 1007.5 |
| 20260904133626 | 50 | 247 | 1.0 | 1.0 | 0.00 | 0.00 | 0.00 | 72 | 1007.5 |
| 20260904133127 | 50 | 262 | 2.0 | 2.0 | 0.00 | 0.00 | 0.00 | 72 | 1007.5 |
| 20260904132629 | 49 | 253 | 3.0 | 3.0 | 0.00 | 0.00 | 0.00 | 72 | 1007.1 |
| 20260904132128 | 49 | 238 | 1.0 | 2.0 | 0.00 | 0.00 | 0.00 | 73 | 1007.5 |
| 20260904131626 | 48 | 314 | 2.0 | 3.0 | 0.00 | 0.00 | 0.00 | 74 | 1007.5 |
| 20260904131125 | 48 | 292 | 1.0 | 1.0 | 0.00 | 0.00 | 0.00 | 75 | 1007.1 |
| 20260904130625 | 47 | 252 | 0.0 | 0.0 | 0.00 | 0.00 | 0.00 | 77 | 1007.1 |
| 20260904130125 | 47 | 301 | 0.0 | 1.0 | 0.00 | 0.00 | 0.00 | 79 | 1007.1 |
| 20260904125624 | 47 | 218 | 0.0 | 0.0 | 0.00 | 0.00 | 0.00 | 79 | 1007.1 |
| 20260904125123 | 47 | 220 | 0.0 | 0.0 | 0.00 | 0.00 | 0.00 | 80 | 1007.1 |
| 20260904124623 | 47 | 213 | 0.0 | 0.0 | 0.00 | 0.00 | 0.00 | 81 | 1007.1 |
| 20260904124123 | 47 | 223 | 0.0 | 0.0 | 0.00 | 0.00 | 0.00 | 81 | 1007.1 |
| 20260904123622 | 47 | 223 | 0.0 | 0.0 | 0.00 | 0.00 | 0.00 | 81 | 1007.1 |
| 20260904123124 | 48 | 221 | 0.0 | 0.0 | 0.00 | 0.00 | 0.00 | 81 | 1007.1 |
| 20260904122623 | 48 | 275 | 1.0 | 1.0 | 0.00 | 0.00 | 0.00 | 80 | 1006.8 |
| 20260904122121 | 48 | 221 | 0.0 | 0.0 | 0.00 | 0.00 | 0.00 | 81 | 1006.8 |
| 20260904121620 | 48 | 249 | 0.0 | 1.0 | 0.00 | 0.00 | 0.00 | 80 | 1006.8 |
| 20260904121123 | 48 | 250 | 0.0 | 1.0 | 0.00 | 0.00 | 0.00 | 80 | 1006.8 |
| 20260904120619 | 48 | 279 | 0.0 | 1.0 | 0.00 | 0.00 | 0.00 | 80 | 1006.8 |
| 20260904120120 | 48 | 233 | 1.0 | 1.0 | 0.00 | 0.00 | 0.00 | 79 | 1006.8 |
| 20260904115618 | 48 | 278 | 1.0 | 2.0 | 0.00 | 0.00 | 0.00 | 79 | 1006.8 |
| 20260904115119 | 48 | 217 | 0.0 | 0.0 | 0.00 | 0.00 | 0.00 | 79 | 1006.8 |
| 20260904114618 | 48 | 255 | 0.0 | 1.0 | 0.00 | 0.00 | 0.00 | 79 | 1006.8 |
| 20260904114117 | 48 | 211 | 0.0 | 0.0 | 0.00 | 0.00 | 0.00 | 80 | 1006.8 |
| 20260904113617 | 48 | 213 | 0.0 | 0.0 | 0.00 | 0.00 | 0.00 | 80 | 1006.8 |
| 20260904113116 | 48 | 193 | 0.0 | 0.0 | 0.00 | 0.00 | 0.00 | 79 | 1006.4 |
| 20260904112617 | 48 | 187 | 0.0 | 0.0 | 0.00 | 0.00 | 0.00 | 79 | 1006.4 |
| 20260904112116 | 48 | 185 | 0.0 | 1.0 | 0.00 | 0.00 | 0.00 | 79 | 1006.4 |
| 20260904111615 | 48 | 176 | 0.0 | 0.0 | 0.00 | 0.00 | 0.00 | 80 | 1006.4 |